[[{"header":{"parameterUnit":"m.s-1","parameterCategory":1,"la1":30.2991,"la2":30.254,"lo1":-89.0895,"lo2":-89.0444,"dy":0.0017,"dx":0.0017,"nx":28,"ny":28,"refTime":"2025-07-13T03:00:00:Z","depth":0,"parameterNumber":2,"parameterNumberName":"U-component_of_WINDS"},"data":[0,0,0,0,0,0,0,0,0,0,0,0,0,0,0,0,0,0,0,0,0,0,0,0,0,0,0,0,0,0,0,0,0,0,0,0,0,0,0,0,0,0,0,0,0,0,0,0,0,0,0,0,0,0,0,0,0,0,2.2362,2.2363,0,2.2528,2.253,2.2532,2.2566,2.2565,2.2563,2.2562,2.2737,2.2743,2.2749,0,0,0,0,0,0,0,0,0,0,0,0,0,2.2076,2.2081,2.2361,2.2363,2.2365,2.2528,2.253,2.2533,2.2566,2.2565,2.2563,2.2562,2.2735,2.2742,2.2749,0,0,0,0,0,0,0,0,0,0,0,0,0,2.2217,2.2083,2.2361,2.2402,2.2407,2.2527,2.253,2.2533,2.2566,2.2565,2.2563,2.2561,2.2733,2.2742,2.275,2.2843,0,0,2.2777,2.2781,0,0,0,0,0,0,0,0,2.2209,2.2228,2.2394,2.2399,2.2405,2.2524,2.2494,2.2637,2.2567,2.2506,2.2562,2.256,2.2668,2.2682,2.2718,2.2851,2.2859,2.2778,2.2783,2.2787,2.279,0,0,0,0,0,0,0,2.22,2.2221,2.2428,2.2396,2.2403,2.2413,2.2431,2.2521,2.2596,2.2511,2.2514,2.2533,2.2671,2.2709,2.2722,2.2862,2.2778,2.2786,2.2791,2.2794,2.308,2.3083,0,0,0,0,0,0,2.2182,2.2212,2.2422,2.2432,2.23,2.242,2.244,2.2488,2.2595,2.261,2.2535,2.2534,2.2695,2.2712,2.2729,2.2844,2.2787,2.2795,2.28,2.3078,2.3081,2.3083,0,0,0,0,0,0,2.2176,2.22,2.2415,2.2323,2.2351,2.2427,2.2481,2.2492,2.2531,2.2613,2.2627,2.256,2.2694,2.2716,2.2814,2.2851,2.2799,2.2807,2.3075,2.3079,2.3082,2.3076,0,0,0,0,0,0,2.2167,2.2198,2.2233,2.2324,2.2356,2.2497,2.2483,2.2497,2.2545,2.2546,2.264,2.2654,2.2695,2.2801,2.2823,2.2862,2.2814,2.3072,2.3077,2.3081,2.3073,2.3079,2.3083,0,0,0,0,0,2.2157,2.2225,2.2234,2.2259,2.2401,2.2499,2.2517,2.2562,2.2548,2.2584,2.2637,2.2651,2.2843,2.2811,2.2836,2.2878,2.307,2.3076,2.3081,2.3071,2.3078,2.3083,0,0,0,0,0,0,2.2138,2.2238,2.2249,2.2348,2.2415,2.2504,2.2551,2.2568,2.264,2.2638,2.2692,2.2713,2.2808,2.2853,2.2815,2.2974,2.2956,2.2967,2.294,2.2947,2.2952,2.2939,2.2821,0,0,0,0,0,2.2145,2.2214,2.2299,2.2378,2.2411,2.2475,2.252,2.2548,2.2619,2.2648,2.2708,2.2778,2.2855,2.2904,2.2979,2.308,2.3102,2.3122,2.3127,2.3131,2.3139,2.3196,2.3206,2.31,2.31,2.31,0,0,2.216,2.2224,2.2265,2.2376,2.2431,2.2503,2.2499,2.2575,2.2629,2.266,2.2755,2.2802,2.2884,2.2984,2.3032,2.3025,2.3173,2.3138,2.314,2.3146,2.3203,2.3213,2.3221,2.3104,2.3103,2.3103,0,0,2.2225,2.228,2.2352,2.2407,2.249,2.2532,2.2549,2.2637,2.2669,2.2765,2.279,2.2856,2.2987,2.3044,2.309,2.3178,2.3193,2.3201,2.3227,2.3283,2.3291,2.3299,2.333,2.334,2.3209,2.3209,2.3209,0,2.2234,2.2342,2.2388,2.2463,2.2511,2.2542,2.2616,2.2667,2.2771,2.2804,2.2795,2.2959,2.3017,2.3131,2.3152,2.3189,2.3211,2.319,2.3286,2.3294,2.3302,2.3332,2.3343,2.3209,2.3209,2.3209,2.3209,0,2.2349,2.2424,2.2473,2.257,2.2625,2.2699,2.2757,2.2807,2.2831,2.2875,2.2974,2.3044,2.3133,2.3163,2.3188,2.328,2.3274,2.3275,2.3258,2.3311,2.3341,2.3353,2.321,2.321,2.321,2.321,0,0,2.2405,2.2527,2.2544,2.2589,2.2682,2.2742,2.2818,2.2904,2.2946,2.3017,2.3083,2.3193,2.3194,2.3247,2.3279,2.3327,2.3392,2.3323,2.3326,2.3333,2.3499,2.3496,2.3509,2.3403,2.3406,2.3408,2.3491,0,2.2481,2.2616,2.2659,2.2773,2.2842,2.2873,2.294,2.3005,2.3049,2.3116,2.3165,2.3241,2.3238,2.327,2.332,2.3373,2.3426,2.3368,2.3466,2.3468,2.3442,2.3524,2.3522,2.3597,2.3503,2.3505,2.3507,0,2.2586,2.2657,2.2776,2.2862,2.2893,2.2951,2.3034,2.3098,2.3173,2.3202,2.326,2.3289,2.3371,2.3351,2.3465,2.3425,2.3468,2.3501,2.3505,2.3515,2.349,2.3535,2.3623,2.3633,2.3525,2.3524,2.3522,0,2.2613,2.2739,2.2827,2.2865,2.2966,2.3007,2.3052,2.3125,2.3174,2.3248,2.328,2.3363,2.3408,2.3472,2.3522,2.3502,2.3632,2.3616,2.3659,2.3657,2.3684,2.3681,2.3778,2.3713,2.3713,2.3713,2.3712,0,2.2692,2.2764,2.284,2.2894,2.2976,2.3027,2.3107,2.3154,2.3219,2.3284,2.3317,2.3377,2.344,2.3509,2.355,2.3639,2.3659,2.3685,2.3695,2.3681,2.3678,2.3709,2.3705,2.3716,2.3715,2.3714,2.3714,0,2.2735,2.279,2.2887,2.2976,2.3,2.3056,2.3133,2.3187,2.3232,2.3314,2.3336,2.3408,2.3491,2.3547,2.3655,2.3682,2.3778,2.3787,2.3751,2.3756,2.3795,2.379,2.3915,2.3934,2.3856,2.3857,2.3858,0,2.2781,2.2837,2.2931,2.2976,2.3021,2.3093,2.3143,2.3196,2.3247,2.3338,2.3381,2.3466,2.3537,2.3668,2.3731,2.3813,2.3824,2.3863,2.3837,2.3822,2.3824,2.382,2.3825,2.3866,2.3866,2.3867,2.3867,0,2.2857,2.2881,2.2951,2.3031,2.309,2.3156,2.3222,2.3257,2.3322,2.3378,2.3463,2.3518,2.3626,2.3711,2.3799,2.3847,2.3868,2.3875,2.3889,2.3875,2.3852,2.3864,2.3761,2.3872,2.3871,2.3871,2.3871,2.387,2.2902,2.2953,2.3027,2.3105,2.316,2.3222,2.3277,2.3329,2.34,2.3491,2.3519,2.3607,2.3683,2.3803,2.3853,2.3923,2.392,2.3941,2.3946,2.395,2.3949,2.3842,2.394,2.394,2.394,2.394,2.394,0,2.2978,2.3028,2.3099,2.319,2.3251,2.3265,2.334,2.339,2.3467,2.3535,2.3604,2.3701,2.3783,2.3853,2.3938,2.3981,2.3993,2.4002,2.3998,2.4009,2.3947,2.3926,2.399,2.399,2.399,2.399,2.399,2.399,2.3025,2.3112,2.3145,2.3261,2.331,2.3395,2.3437,2.3494,2.3549,2.3656,2.3723,2.3768,2.3837,2.3928,2.4004,2.4023,2.4052,2.4058,2.4079,2.4019,2.4014,2.4008,2.3988,2.4064,2.4065,2.4135,2.4135,2.4136]},{"header":{"parameterUnit":"m.s-1","parameterCategory":1,"la1":30.2991,"la2":30.254,"lo1":-89.0895,"lo2":-89.0444,"dy":0.0017,"dx":0.0017,"nx":28,"ny":28,"refTime":"2025-07-13T03:00:00:Z","depth":0,"parameterNumber":3,"parameterNumberName":"V-component_of_WINDS"},"data":[0,0,0,0,0,0,0,0,0,0,0,0,0,0,0,0,0,0,0,0,0,0,0,0,0,0,0,0,0,0,0,0,0,0,0,0,0,0,0,0,0,0,0,0,0,0,0,0,0,0,0,0,0,0,0,0,0,0,3.7247,3.7246,0,3.7178,3.7177,3.7177,3.7123,3.7122,3.7121,3.7121,3.7044,3.7042,3.7041,0,0,0,0,0,0,0,0,0,0,0,0,0,3.7325,3.7324,3.7247,3.7246,3.7245,3.7178,3.7177,3.7176,3.7123,3.7122,3.7121,3.7121,3.7044,3.7042,3.704,0,0,0,0,0,0,0,0,0,0,0,0,0,3.7277,3.7324,3.7247,3.7211,3.7207,3.7179,3.7177,3.7176,3.7123,3.7122,3.7121,3.712,3.7045,3.7042,3.704,3.7041,0,0,3.7033,3.7032,0,0,0,0,0,0,0,0,3.728,3.7275,3.7217,3.7213,3.7209,3.7158,3.7177,3.7131,3.7123,3.7154,3.7121,3.712,3.7082,3.7076,3.7065,3.7037,3.7034,3.7033,3.7031,3.703,3.7029,0,0,0,0,0,0,0,3.7284,3.7277,3.722,3.7216,3.7211,3.7195,3.7188,3.7168,3.7123,3.7152,3.7148,3.714,3.7079,3.7067,3.7063,3.7033,3.7033,3.7031,3.7029,3.7028,3.7,3.7001,0,0,0,0,0,0,3.7293,3.728,3.7222,3.7218,3.7243,3.7195,3.7186,3.7175,3.7123,3.7115,3.7141,3.7138,3.7072,3.7066,3.706,3.7056,3.703,3.7028,3.7027,3.7,3.7,3.7001,0,0,0,0,0,0,3.7295,3.7289,3.7225,3.7248,3.7239,3.7194,3.7182,3.7174,3.7162,3.7115,3.7107,3.7138,3.7071,3.7063,3.7046,3.7053,3.7027,3.7025,3.6999,3.7,3.7001,3.705,0,0,0,0,0,0,3.7298,3.729,3.7291,3.7248,3.7238,3.7214,3.7183,3.7173,3.7159,3.7154,3.711,3.7101,3.707,3.705,3.7044,3.7049,3.7023,3.6998,3.6999,3.7,3.7047,3.7052,3.7057,0,0,0,0,0,3.7301,3.7306,3.7292,3.7285,3.7239,3.7215,3.7208,3.7174,3.716,3.716,3.713,3.7103,3.7054,3.7049,3.7041,3.7046,3.6997,3.6999,3.7,3.7045,3.7051,3.7057,0,0,0,0,0,0,3.7349,3.73,3.7283,3.7275,3.725,3.7206,3.7205,3.7182,3.7158,3.7154,3.711,3.7101,3.7088,3.7065,3.7061,3.7043,3.7022,3.7022,3.7059,3.7064,3.7069,3.7074,3.7021,0,0,0,0,0,3.7359,3.7346,3.7303,3.73,3.7289,3.7249,3.7237,3.7213,3.7184,3.7172,3.7141,3.7112,3.7089,3.7075,3.7052,3.7044,3.7032,3.7044,3.7048,3.7052,3.7052,3.7045,3.7049,3.7006,3.7006,3.7006,0,0,3.7379,3.7351,3.7345,3.7309,3.7287,3.7272,3.724,3.7226,3.7214,3.7169,3.7152,3.7128,3.7092,3.7079,3.7072,3.706,3.7062,3.7054,3.7058,3.7056,3.7047,3.7051,3.7055,3.7007,3.7007,3.7007,0,0,3.7407,3.7386,3.7381,3.7359,3.7326,3.73,3.7299,3.7258,3.7241,3.7224,3.719,3.7173,3.7136,3.7112,3.7095,3.7115,3.7088,3.7108,3.7132,3.7125,3.7129,3.7131,3.7137,3.714,3.7109,3.7109,3.7109,0,3.7436,3.7414,3.738,3.7369,3.7353,3.7315,3.7308,3.7288,3.7249,3.7238,3.7226,3.7178,3.7151,3.7132,3.7137,3.7125,3.712,3.7113,3.7131,3.7134,3.7136,3.7141,3.7143,3.7112,3.7111,3.7111,3.7111,0,3.745,3.7436,3.7435,3.74,3.7385,3.7376,3.7339,3.7327,3.7304,3.7278,3.726,3.7227,3.7196,3.719,3.7166,3.7166,3.716,3.714,3.7117,3.7143,3.7147,3.7148,3.7115,3.7114,3.7114,3.7113,0,0,3.7506,3.7453,3.7454,3.7437,3.7398,3.7385,3.7373,3.7346,3.7336,3.731,3.7297,3.7267,3.7249,3.7229,3.7203,3.7197,3.7213,3.7178,3.7176,3.7185,3.7209,3.7224,3.7227,3.7197,3.7197,3.7197,3.7212,0,3.7527,3.7507,3.7476,3.7464,3.745,3.7413,3.7402,3.7376,3.7352,3.7334,3.7306,3.7285,3.7263,3.7251,3.7244,3.7213,3.7218,3.7212,3.7182,3.7181,3.7191,3.7229,3.7244,3.726,3.7213,3.7214,3.7214,0,3.7549,3.7527,3.7515,3.7478,3.747,3.7462,3.7433,3.7418,3.7386,3.7369,3.7348,3.732,3.7303,3.7284,3.7259,3.7256,3.7242,3.7225,3.7224,3.7219,3.7198,3.7223,3.7264,3.7266,3.7216,3.7216,3.7216,0,3.759,3.7557,3.7546,3.7533,3.7488,3.7483,3.7464,3.7432,3.7418,3.7392,3.7382,3.7354,3.7338,3.7316,3.728,3.727,3.7259,3.7237,3.7242,3.7243,3.724,3.724,3.7278,3.7233,3.7233,3.7233,3.7233,0,3.7616,3.7609,3.7563,3.7556,3.7547,3.7511,3.7503,3.748,3.7452,3.7438,3.7404,3.7391,3.7345,3.7326,3.7297,3.728,3.7274,3.7257,3.7249,3.726,3.7262,3.7249,3.7246,3.7234,3.7233,3.7233,3.7233,0,3.7659,3.7628,3.7613,3.7573,3.7563,3.7558,3.7522,3.7513,3.7487,3.747,3.7463,3.7422,3.7398,3.736,3.7324,3.7305,3.7292,3.728,3.7303,3.7298,3.7305,3.7305,3.7335,3.7336,3.7292,3.7293,3.7293,0,3.7677,3.7672,3.7632,3.7622,3.7604,3.7587,3.7573,3.7537,3.7522,3.7487,3.7481,3.7455,3.7431,3.7394,3.7359,3.733,3.7317,3.7329,3.7312,3.7322,3.7315,3.7316,3.7314,3.7333,3.7334,3.7334,3.7335,0,3.7712,3.7698,3.7679,3.7656,3.764,3.7619,3.7595,3.7588,3.7546,3.7532,3.7508,3.749,3.7455,3.7428,3.7395,3.7372,3.7346,3.7341,3.734,3.735,3.7363,3.7355,3.7313,3.734,3.7339,3.7339,3.7339,3.7338,3.7743,3.7736,3.7707,3.7688,3.7667,3.7647,3.7636,3.761,3.759,3.756,3.7539,3.7516,3.7483,3.7437,3.7416,3.7396,3.7384,3.7384,3.7383,3.7383,3.7387,3.7368,3.7389,3.7389,3.7389,3.7389,3.7389,0,3.7775,3.7755,3.7738,3.7708,3.7692,3.7672,3.7645,3.7632,3.7614,3.7587,3.7566,3.7538,3.7512,3.7475,3.7446,3.7437,3.7424,3.743,3.743,3.7425,3.7399,3.7402,3.7441,3.7441,3.7441,3.7441,3.7441,3.7441,3.779,3.7778,3.776,3.7736,3.7715,3.7695,3.7681,3.7661,3.764,3.7611,3.7591,3.7568,3.7537,3.7505,3.7479,3.7469,3.7459,3.7469,3.7455,3.7431,3.7427,3.7422,3.7424,3.7468,3.7468,3.7482,3.7482,3.7482]}]]